Content
SEND FEEDBACK

Daily
Averages
Monthly
Summary
United States of America

MERIZO, GUAM


Home > North America > United States > Guam
Elevation: 3 meters     Latitude: 13 14N     Longitude: 144 39E

WEATHER
 
SELECT A DAY
Number of Records: 356,611;   Date Range: 1/1/95 - 12/19/14
 
SHARE

PRINT THIS DATA

[ ← Previous Day ]
WEATHER ALMANAC - 4 APRIL, 2013
[ Next Day → ]
[ °F ]   °C
Weather ElementAverageHighLow
Temperature26.9 °C29 °C (1:01 pm)24.6 °C (3:55 am)
Dewpoint22.8 °C24 °C (1:19 pm)21.6 °C (8:55 pm)
Humidity77.9 %90 % (2:55 am)69 % (2:55 pm)
Barometer1010.2 hPa1012.2 hPa (12:14 am)1008.8 hPa (3:55 pm)
Wind Speed17.9 km/h24.1 km/h (9:55 am)
Weather ElementAverage
Visibility15.3 km
Wind DirectionE (95.5 °)

Weather ElementTotal
Precipitation---
Cooling Degree Days8.5 (Base 18.3)
Growing Degree Days16.8 (Base 10)
Averaged from 44 records on 4 April, 2013
WEATHER CONDITIONS BREAKOUT
WIND DIRECTION BREAKOUT
WEATHER BY HOUR - 4 APRIL, 2013
[ °F ]   °C
Local TimeTemperatureDewpointHumidityBarometerVisibilityWind DirectionWind SpeedGust SpeedPrecipitationEventsConditions
12:14 AM25 °C23 °C89 %1012.2 hPa11.3 kmENE (60°)14.8 km/hScattered Clouds
12:55 AM25.1 °C23.1 °C89 %1010.5 hPa11.3 kmENE (60°)14.8 km/h0 mmMostly Cloudy
1:55 AM25.3 °C23.3 °C89 %1010.2 hPa11.3 kmNNE (30°)11.1 km/h0 mmMostly Cloudy
2:55 AM25 °C23.3 °C90 %1009.8 hPa11.3 kmENE (60°)9.3 km/hScattered Clouds
3:55 AM24.6 °C22.8 °C90 %1009.8 hPa11.3 kmEast (80°)9.3 km/hPartly Cloudy
4:55 AM24.9 °C22.9 °C89 %1010.2 hPa11.3 kmESE (110°)7.4 km/hScattered Clouds
5:55 AM24.9 °C23.1 °C90 %1010.2 hPa11.3 kmEast (90°)7.4 km/hScattered Clouds
6:55 AM25.2 °C23.2 °C89 %1010.8 hPa11.3 kmESE (110°)11.1 km/hPartly Cloudy
7:55 AM26.5 °C22.9 °C80 %1011.5 hPa16.1 kmESE (110°)14.8 km/hClear
8:55 AM27.1 °C22.9 °C78 %1011.5 hPa16.1 kmESE (120°)16.7 km/hMostly Cloudy
9:22 AM28 °C23 °C74 %1011.5 hPa16.1 kmESE (120°)22.2 km/hScattered Clouds
9:55 AM27.8 °C22.8 °C74 %1011.5 hPa16.1 kmESE (120°)24.1 km/hMostly Cloudy
10:55 AM28.5 °C23.1 °C72 %1011.2 hPa16.1 kmESE (120°)22.2 km/hPartly Cloudy
11:55 AM28.8 °C22.9 °C70 %1010.8 hPa16.1 kmESE (110°)20.4 km/hPartly Cloudy
12:31 PM28 °C23 °C74 %1010.5 hPa16.1 kmEast (100°)22.2 km/hMostly Cloudy
12:34 PM28 °C23 °C74 %1010.2 hPa16.1 kmESE (110°)24.1 km/hMostly Cloudy
12:37 PM28 °C23 °C74 %1010.2 hPa16.1 kmEast (100°)20.4 km/hMostly Cloudy
12:38 PM28 °C23 °C74 %1010.2 hPa16.1 kmEast (100°)20.4 km/hMostly Cloudy
12:55 PM28.4 °C23.2 °C73 %1010.2 hPa16.1 kmEast (100°)22.2 km/hMostly Cloudy
12:56 PM28 °C23 °C74 %1010.2 hPa16.1 kmEast (100°)24.1 km/hMostly Cloudy
1:00 PM28 °C23 °C74 %1010.2 hPa16.1 kmESE (110°)18.5 km/hMostly Cloudy
1:01 PM29 °C23 °C70 %1010.2 hPa16.1 kmESE (110°)20.4 km/hMostly Cloudy
1:19 PM28 °C24 °C79 %1009.8 hPa16.1 kmEast (90°)20.4 km/hScattered Clouds
1:55 PM28.3 °C23 °C73 %1009.5 hPa16.1 kmESE (110°)16.7 km/hScattered Clouds
2:11 PM29 °C23 °C70 %1009.1 hPa16.1 kmEast (90°)22.2 km/hMostly Cloudy
2:14 PM29 °C23 °C70 %1009.1 hPa16.1 kmEast (100°)18.5 km/hMostly Cloudy
2:28 PM28 °C23 °C74 %1009.1 hPa16.1 kmENE (70°)20.4 km/hMostly Cloudy
2:39 PM28 °C23 °C74 %1009.1 hPa16.1 kmEast (90°)22.2 km/hScattered Clouds
2:55 PM28.8 °C22.6 °C69 %1009.1 hPa16.1 kmEast (90°)24.1 km/hPartly Cloudy
3:55 PM28.4 °C23.3 °C74 %1008.8 hPa16.1 kmEast (90°)22.2 km/hScattered Clouds
4:55 PM27.9 °C22.8 °C74 %1008.8 hPa16.1 kmEast (90°)18.5 km/hScattered Clouds
5:55 PM27 °C22.5 °C76 %1009.1 hPa16.1 kmEast (100°)16.7 km/hScattered Clouds
6:55 PM26.2 °C22.6 °C80 %1009.8 hPa16.1 kmEast (90°)18.5 km/hScattered Clouds
6:57 PM26 °C23 °C83 %1009.8 hPa16.1 kmEast (100°)18.5 km/hMostly Cloudy
7:03 PM26 °C22 °C78 %1010.2 hPa16.1 kmEast (100°)18.5 km/hScattered Clouds
7:05 PM26 °C22 °C78 %1010.2 hPa16.1 kmEast (90°)18.5 km/hMostly Cloudy
7:30 PM26 °C22 °C78 %1010.2 hPa16.1 kmEast (90°)22.2 km/hMostly Cloudy
7:55 PM25.9 °C22 °C79 %1010.5 hPa16.1 kmEast (90°)20.4 km/hPartly Cloudy
8:55 PM25.7 °C21.6 °C78 %1011.2 hPa16.1 kmEast (100°)14.8 km/hPartly Cloudy
9:15 PM26 °C22 °C78 %1011.2 hPa16.1 kmEast (100°)13 km/hMostly Cloudy
9:42 PM26 °C22 °C78 %1011.2 hPa16.1 kmEast (100°)14.8 km/hScattered Clouds
9:55 PM25.7 °C21.8 °C79 %1011.2 hPa16.1 kmEast (100°)13 km/hScattered Clouds
10:55 PM25.8 °C21.8 °C78 %1011.9 hPa16.1 kmEast (90°)16.7 km/hMostly Cloudy
11:55 PM25.7 °C21.7 °C78 %1011.5 hPa16.1 kmEast (100°)14.8 km/hMostly Cloudy
Hourly data recorded from PGUA, located 0 kilometers away from Merizo, Guam







STORIES FROM OUR PARTNERS